Погода в Афанасьеве

Россия / Липецкая область     52°34′13″N   38°11′28″E
темп.,
°C
ветер,
м/с
пор.,
м/с
влажн.,
%
обл.,
%
осадки,
мм/ч
давл.,
гПа
погр.,
м
25 июля, вс
вс2500:00+17с2264100 0.0 101744
03:00+16всв226311 0.0 101816
06:00+16с11690 0.0 101915
09:00+21св22520 0.0 1020648
12:00+23всв234140 0.0 10202125
15:00+23ссв2244100 0.0 1021945
18:00+22всв115095 0.0 102138
21:00+20вюв2250100 0.0 102128
26 июля, пн
пн2600:00+19ююв115185 0.0 102217
03:00+16ююв22611 0.0 102311
06:00+17ю226566 0.0 102448
09:00+22ю115015 0.0 1024465
12:00+25зюз224152 0.0 10241761
15:00+26зсз233887 0.0 10232121
18:00+23сз245328 0.0 1023168
21:00+19зсз22563 0.0 102311
27 июля, вт
вт2700:00+17сз22590 0.0 102313
03:00+16с22641 0.0 102311
06:00+17с01641 0.0 102411
09:00+23ссв12464 0.0 1023406
12:00+27с12354 0.0 10222010
15:00+28сз2232100 0.0 10212639
18:00+27ссз223738 0.0 10201756
21:00+22св115148 0.0 102016
28 июля, ср
ср2800:00+19юв22553 0.0 102111
03:00+18ю226149 0.0 102011
06:00+18ююз2262100 0.0 101923
09:00+24ю344673 0.0 1018356
12:00+28ююз453582 0.0 10171644
15:00+25зсз101052100 0.0 10161016
18:00+19ююз3782100 0.4 1015206
21:00+20ююв41073100 0.4 1013276
29 июля, чт
чт2900:00+20ююз51475100 0.1 1012485
03:00+18юз498858 0.3 1010259
06:00+17зюз37944 0.0 1009206
09:00+23з56692 0.0 1009699
12:00+28з684595 0.0 10082028
15:00+29з7940100 0.0 10072394
18:00+27сз4747100 0.0 10061140
21:00+22сз226517 0.0 100712